IRIDIUM 82 [-] (25467 NORAD) Tracking and Keplerian Element Data

This shows tracking and keplerian element data for the satellite.

Feedback or suggestion? Click here.




ElementValue
Catalog25467
NameIRIDIUM 82 [-]
Epoch Orbit6808
Epoch Day348.89640645
Epoch Year2018
RAAN131.4878
Inclination86.4001
Eccentricity0.0178726
Argument of Perigee244.9135
Mean Anonmoly113.3452
Mean Motion14.90147649
Decay Rate7.97E-06
L11 25467U 98051A 18348.89640645 .00000797 00000-0 58086-4 0 9997
L22 25467 86.4001 131.4878 0178726 244.9135 113.3452 14.90147649 68082

Live tracking and technical data element details for IRIDIUM 82 [-] (NORAD 25467). IRIDIUM 82 [-] can be tracked NOW for your location showing map with azimuth and elevation plus other details from your city location.

Track the satellite on the map from your city or location and see movement details for azimuth, elevation, latitude, longitude, range, height, and movement on the map or in text.







IsCatalogInMostPopularTable: catalog: 25467, numindb: 55
Update: records affected: 1



GetName: 25467 IRIDIUM 82 [-]

Hit Count: updated at: Sat, 15 Dec 2018 18:15:31 GMT